SCP
0 0 0 0 0 0 0 -0 0 0 0 0 0 0 0 0 0 0 0 0 0 0
0 0 0 0 0 0 0 0 0 0 0 0 0 0 0 0 0 0 0 0 0 0
0 0 0 0 0 0 0 0 0 0 0 0 0 0 0 0 0 0 0 0 0 0
0 0 0 0 0 0 0 0 0 0 0 0 0 0 0 0 0 0 0 0 0 0
0 0 0 0 0 0 0 0 0 0 0 0 0 0 0 0 0 0 0 0 0 0
0 0 0 0 0 0 0 0 0 0 0 0 0 0 0 0 0 0 0 0 0 0
0 0 0 0 0 0 0 0 0 0 0 0 0 0 0 0 0 0 0 0 0 0
0 0 0 0 0 0 0 0 0 0 0 0 0 0 0 0 0 0 0 0 0 0
0 0 0 0 0 0 0 0 0 0 0 0 0 0 0 0 0 0 0 0 0 0
0 0 0 0 0 0 0 0 0 0 0 0 0 0 0 0 0 0 0 0 0 0
0 0 0 0 0 0 0 0 0 0 0 0 0 0 0 0 0 0 0 0 0 0
0 0 0 0 0 0 0 0 0 0 0 0 0 0 0 0 0 0 0 0 0 0
0 0 0 0 0 0 0 0 0 0 0 0 0 0 0 0 0 0 0 0 0 0
0 0 0 0 0 0 0 0 0 0 0 0 0 0 0 0 0 0 0 0 0 0
Wind_Speed_500mb
100 100 103 109 99 90 86 94 75 138 135 143 124 116 115 108 102 101 98 95 86 82
87 90 97 112 110 108 93 76 93 110 141 138 127 125 110 104 103 103 99 91 80 79
88 93 94 87 87 100 92 87 95 109 120 130 126 116 108 118 109 101 97 91 79 76
85 87 79 85 86 77 91 91 96 99 132 136 133 125 108 107 107 100 97 89 75 78
77 81 88 82 89 82 94 94 101 97 114 147 133 120 118 117 100 107 92 80 80 80
78 79 87 84 78 84 96 97 99 103 88 125 140 124 116 115 104 101 94 92 84 77
67 79 80 84 79 83 93 94 100 99 86 112 125 113 110 110 108 98 94 87 80 81
55 76 80 76 87 82 92 86 94 93 98 104 103 109 120 110 104 100 88 81 77 63
44 61 70 76 85 86 84 92 97 97 96 101 100 112 119 109 105 85 88 82 64 50
43 60 63 74 84 77 79 83 82 79 85 97 100 107 111 104 86 82 74 60 56 58
57 67 80 85 85 89 82 75 74 82 86 88 92 95 81 72 71 64 55 56 54 51
57 74 78 78 75 77 80 73 72 76 78 86 77 71 67 68 61 55 56 53 45 46
45 55 61 69 71 71 71 71 79 72 68 78 81 69 65 59 60 58 51 52 48 44
44 54 58 62 61 64 70 77 73 77 76 72 69 63 59 54 49 50 50 47 45 43
Wind_Direction_500mb
265 256 250 246 244 247 243 237 235 214 214 216 210 212 215 219 220 216 221 221 222 221
257 255 251 245 242 242 243 244 227 211 211 216 209 210 212 216 217 218 220 221 220 217
256 251 249 245 243 242 235 229 228 231 215 213 211 211 206 215 216 216 217 217 217 214
257 250 241 237 229 224 223 219 224 224 221 212 205 206 208 207 212 217 213 210 219 212
259 247 241 231 227 215 224 219 221 223 210 208 204 206 206 214 204 212 209 218 209 209
258 244 234 227 217 212 218 216 216 220 218 206 205 203 207 208 210 206 213 213 204 203
256 233 222 210 202 211 210 213 212 217 223 210 195 208 213 205 205 206 208 203 198 198
241 220 211 205 202 206 202 208 211 212 212 215 204 205 207 202 203 204 197 193 191 209
182 184 186 188 189 199 198 202 204 205 207 211 218 203 202 204 200 192 194 189 196 202
172 176 173 179 187 191 199 201 200 206 211 209 210 203 198 199 189 187 190 192 194 188
174 175 177 179 185 189 192 191 197 196 198 201 194 198 187 178 187 181 188 191 189 195
173 172 173 174 176 175 180 181 183 187 187 190 181 174 175 176 178 184 177 183 188 183
167 164 162 164 167 167 173 174 174 168 177 174 169 168 167 171 171 171 178 173 182 191
141 151 153 153 155 158 158 157 160 163 162 160 160 158 159 166 172 169 172 186 190 196
Wind_Speed_850mb
100 100 103 109 99 90 86 94 75 138 135 143 124 116 115 108 102 101 98 95 86 82
87 90 97 112 110 108 93 76 93 110 141 138 127 125 110 104 103 103 99 91 80 79
88 93 94 87 87 100 92 87 95 109 120 130 126 116 108 118 109 101 97 91 79 76
85 87 79 85 86 77 91 91 96 99 132 136 133 125 108 107 107 100 97 89 75 78
77 81 88 82 89 82 94 94 101 97 114 147 133 120 118 117 100 107 92 80 80 80
78 79 87 84 78 84 96 97 99 103 88 125 140 124 116 115 104 101 94 92 84 77
67 79 80 84 79 83 93 94 100 99 86 112 125 113 110 110 108 98 94 87 80 81
55 76 80 76 87 82 92 86 94 93 98 104 103 109 120 110 104 100 88 81 77 63
44 61 70 76 85 86 84 92 97 97 96 101 100 112 119 109 105 85 88 82 64 50
43 60 63 74 84 77 79 83 82 79 85 97 100 107 111 104 86 82 74 60 56 58
57 67 80 85 85 89 82 75 74 82 86 88 92 95 81 72 71 64 55 56 54 51
57 74 78 78 75 77 80 73 72 76 78 86 77 71 67 68 61 55 56 53 45 46
45 55 61 69 71 71 71 71 79 72 68 78 81 69 65 59 60 58 51 52 48 44
44 54 58 62 61 64 70 77 73 77 76 72 69 63 59 54 49 50 50 47 45 43
Wind_Direction_850mb
265 256 250 246 244 247 243 237 235 214 214 216 210 212 215 219 220 216 221 221 222 221
257 255 251 245 242 242 243 244 227 211 211 216 209 210 212 216 217 218 220 221 220 217
256 251 249 245 243 242 235 229 228 231 215 213 211 211 206 215 216 216 217 217 217 214
257 250 241 237 229 224 223 219 224 224 221 212 205 206 208 207 212 217 213 210 219 212
259 247 241 231 227 215 224 219 221 223 210 208 204 206 206 214 204 212 209 218 209 209
258 244 234 227 217 212 218 216 216 220 218 206 205 203 207 208 210 206 213 213 204 203
256 233 222 210 202 211 210 213 212 217 223 210 195 208 213 205 205 206 208 203 198 198
241 220 211 205 202 206 202 208 211 212 212 215 204 205 207 202 203 204 197 193 191 209
182 184 186 188 189 199 198 202 204 205 207 211 218 203 202 204 200 192 194 189 196 202
172 176 173 179 187 191 199 201 200 206 211 209 210 203 198 199 189 187 190 192 194 188
174 175 177 179 185 189 192 191 197 196 198 201 194 198 187 178 187 181 188 191 189 195
173 172 173 174 176 175 180 181 183 187 187 190 181 174 175 176 178 184 177 183 188 183
167 164 162 164 167 167 173 174 174 168 177 174 169 168 167 171 171 171 178 173 182 191
141 151 153 153 155 158 158 157 160 163 162 160 160 158 159 166 172 169 172 186 190 196